KK5DC Weather Reports


Display with metric or nautical units.
time (UTC)temp
F
wind
direction
speed
MPH
gust
MPH
rain 1hr
in
rain 24hr
in
rain mn
in
humidity
%
barometer
mb
20260903073510 76 161 0.0 3.0 0.00 0.22 0.00 91 1013.8
20260903073506 76 153 0.0 2.0 0.00 0.22 0.00 91 1014.5
20260903073027 76 185 0.0 2.0 0.00 0.22 0.00 91 1014.6
20260903073003 76 169 1.0 3.0 0.00 0.22 0.00 91 1013.8
20260903072503 76 146 0.0 2.0 0.00 0.22 0.00 91 1014.6
20260903072004 76 146 0.0 2.0 0.00 0.22 0.00 91 1014.6
20260903071508 76 203 1.0 3.0 0.00 0.22 0.00 91 1013.9
20260903071005 76 171 1.0 3.0 0.00 0.22 0.00 91 1014.0
20260903070508 76 169 0.0 2.0 0.00 0.22 0.00 91 1014.7
20260903070503 76 157 0.0 2.0 0.00 0.22 0.00 91 1014.1
20260903070016 76 173 0.0 2.0 0.00 0.22 0.00 90 1014.9
20260903070008 76 157 0.0 2.0 0.00 0.22 0.00 90 1014.1
20260903065507 76 173 0.0 2.0 0.00 0.22 0.00 90 1014.9
20260903065504 76 158 0.0 2.0 0.00 0.22 0.00 90 1014.1
20260903065005 76 148 1.0 3.0 0.00 0.22 0.00 89 1014.1
20260903064515 76 173 0.0 0.0 0.00 0.22 0.00 89 1014.9
20260903064008 76 173 0.0 0.0 0.00 0.22 0.00 89 1014.9
20260903064006 76 169 1.0 5.0 0.00 0.22 0.00 89 1014.2
20260903063503 76 179 2.0 4.0 0.00 0.22 0.00 88 1014.1
20260903063016 76 173 0.0 2.0 0.00 0.22 0.00 88 1014.9
20260903062509 76 184 2.0 8.0 0.00 0.22 0.00 88 1014.1
20260903062013 76 178 0.0 2.0 0.00 0.22 0.00 88 1014.9
20260903062002 76 180 2.0 7.0 0.00 0.22 0.00 88 1014.1
20260903061510 76 150 0.0 2.0 0.00 0.22 0.00 87 1014.7
20260903061504 76 161 2.0 7.0 0.00 0.22 0.00 87 1014.0
20260903061005 76 211 2.0 9.0 0.00 0.22 0.00 87 1014.0
20260903060504 76 252 0.0 5.0 0.00 0.22 0.00 87 1014.6
20260903060502 76 159 2.0 11.0 0.00 0.22 0.00 87 1013.8
20260903060008 76 135 1.0 4.0 0.00 0.22 0.00 86 1014.7
20260903060006 76 191 2.0 11.0 0.00 0.22 0.00 86 1014.0
20260903055506 76 189 1.0 4.0 0.00 0.22 0.00 86 1014.7
20260903055503 76 135 2.0 10.0 0.00 0.22 0.00 86 1014.1
20260903055005 76 168 1.0 4.0 0.00 0.22 0.00 87 1014.7
20260903054518 76 217 0.0 5.0 0.00 0.22 0.00 86 1014.6
20260903054513 76 160 4.0 8.0 0.00 0.22 0.00 86 1014.0
20260903054005 76 154 1.0 5.0 0.00 0.22 0.00 87 1014.8
20260903054003 76 167 3.0 8.0 0.00 0.22 0.00 87 1014.1
20260903053508 76 127 3.0 7.0 0.00 0.22 0.00 87 1014.1
20260903053020 76 164 0.0 3.0 0.00 0.22 0.00 86 1014.7
20260903053017 76 130 3.0 7.0 0.00 0.22 0.00 86 1014.1
20260903052504 76 173 0.0 2.0 0.00 0.22 0.00 87 1014.9
20260903052006 76 207 0.0 3.0 0.00 0.22 0.00 86 1014.9
20260903052004 76 159 3.0 7.0 0.00 0.22 0.00 86 1014.1
20260903051524 76 173 1.0 3.0 0.00 0.22 0.00 86 1014.7
20260903051519 76 189 3.0 8.0 0.00 0.22 0.00 86 1013.9
20260903051014 76 150 1.0 3.0 0.00 0.22 0.00 86 1014.7
20260903050505 76 176 1.0 4.0 0.00 0.22 0.00 86 1014.7
20260903050503 76 168 3.0 11.0 0.00 0.22 0.00 86 1014.0
20260903050007 76 145 1.0 4.0 0.00 0.22 0.00 86 1014.6
20260903050005 76 168 2.0 8.0 0.00 0.22 0.00 86 1014.0
20260903045505 76 132 2.0 8.0 0.00 0.22 0.22 87 1013.9
20260903045503 76 180 1.0 4.0 0.00 0.22 0.22 87 1014.6
20260903045005 76 200 1.0 5.0 0.00 0.22 0.22 88 1014.6
20260903045003 76 155 2.0 6.0 0.00 0.22 0.22 88 1014.0
20260903044510 76 175 1.0 5.0 0.00 0.22 0.22 88 1014.7
20260903044006 76 119 0.0 5.0 0.00 0.22 0.22 88 1014.5
20260903043510 76 181 0.0 5.0 0.00 0.22 0.22 87 1014.4
20260903043011 76 103 1.0 11.0 0.00 0.22 0.22 87 1013.8
20260903042509 76 142 1.0 6.0 0.00 0.22 0.22 86 1014.6
20260903042507 76 76 4.0 11.0 0.00 0.22 0.22 86 1013.7
20260903042013 77 132 1.0 6.0 0.00 0.22 0.22 86 1014.6
20260903042009 77 101 3.0 10.0 0.00 0.22 0.22 86 1013.8
20260903041509 76 152 1.0 8.0 0.00 0.22 0.22 88 1014.7
20260903041504 76 117 3.0 8.0 0.00 0.22 0.22 88 1013.8
20260903041007 76 100 2.0 8.0 0.00 0.22 0.22 89 1014.0
20260903041005 76 135 2.0 8.0 0.00 0.22 0.22 89 1014.6
20260903040510 76 131 0.0 4.0 0.00 0.22 0.22 90 1014.6
20260903040031 76 210 1.0 4.0 0.00 0.22 0.22 90 1014.3
20260903035505 76 253 0.0 4.0 0.00 0.22 0.22 90 1014.3
20260903035503 76 172 1.0 6.0 0.00 0.22 0.22 90 1013.7
20260903035004 76 169 1.0 7.0 0.00 0.22 0.22 90 1013.7
20260903035002 76 163 0.0 5.0 0.00 0.22 0.22 90 1014.3
20260903034510 76 183 1.0 5.0 0.00 0.22 0.22 90 1014.3
20260903034508 76 120 2.0 8.0 0.00 0.22 0.22 90 1013.7
20260903034003 76 134 2.0 8.0 0.00 0.22 0.22 90 1013.8
20260903033505 76 251 1.0 6.0 0.00 0.22 0.22 90 1014.4
20260903033503 76 83 2.0 8.0 0.00 0.22 0.22 90 1013.7
20260903033016 76 205 1.0 6.0 0.00 0.22 0.22 90 1014.3
20260903033013 76 68 3.0 8.0 0.00 0.22 0.22 90 1013.7
20260903032509 77 195 0.0 6.0 0.00 0.22 0.22 90 1014.3
20260903032003 77 208 2.0 6.0 0.00 0.22 0.22 90 1014.4
20260903031527 77 93 2.0 6.0 0.00 0.22 0.22 90 1013.6
20260903031523 77 264 1.0 6.0 0.00 0.22 0.22 90 1014.4
20260903031011 77 80 2.0 11.0 0.00 0.22 0.22 90 1013.6
20260903031008 77 120 1.0 11.0 0.00 0.22 0.22 90 1014.4
20260903030504 77 159 1.0 11.0 0.00 0.22 0.22 90 1014.4
20260903030016 77 182 0.0 6.0 0.00 0.22 0.22 90 1014.3
20260903030013 77 68 3.0 9.0 0.00 0.22 0.22 90 1013.6
20260903025514 77 26 2.0 7.0 0.00 0.22 0.22 90 1013.5
20260903025510 77 211 1.0 9.0 0.00 0.22 0.22 90 1014.2
20260903025013 76 134 2.0 9.0 0.00 0.22 0.22 90 1013.4
20260903024508 77 109 2.0 10.0 0.00 0.22 0.22 90 1014.0
20260903024504 77 66 2.0 9.0 0.00 0.22 0.22 90 1013.4
20260903024004 77 70 3.0 9.0 0.00 0.22 0.22 89 1013.2
20260903024002 77 169 1.0 8.0 0.00 0.22 0.22 89 1014.0
20260903023503 77 105 2.0 9.0 0.00 0.22 0.22 89 1013.0
20260903023012 77 116 3.0 9.0 0.00 0.22 0.22 89 1013.5
20260903023005 77 93 4.0 9.0 0.00 0.22 0.22 89 1012.7
20260903022508 76 9 2.0 7.0 0.00 0.22 0.22 90 1013.3
20260903022008 76 101 1.0 7.0 0.00 0.22 0.22 90 1012.4
20260903021535 76 112 1.0 6.0 0.01 0.22 0.22 91 1012.4
20260903021518 76 11 1.0 7.0 0.01 0.22 0.22 91 1013.2
20260903021004 76 105 2.0 6.0 0.01 0.22 0.22 92 1012.5
20260903020513 76 13 1.0 3.0 0.01 0.22 0.22 92 1012.4
20260903020510 76 73 1.0 2.0 0.01 0.22 0.22 92 1013.2
20260903020035 76 17 1.0 2.0 0.02 0.22 0.22 92 1013.1
20260903020025 76 37 1.0 6.0 0.02 0.22 0.22 92 1012.2
20260903015513 76 65 1.0 6.0 0.04 0.22 0.22 92 1012.1
20260903015510 76 123 1.0 2.0 0.04 0.22 0.22 92 1012.9
20260903015008 75 59 1.0 5.0 0.06 0.22 0.22 92 1012.0
20260903014532 75 101 1.0 3.0 0.08 0.22 0.22 92 1011.6
20260903014521 75 148 0.0 2.0 0.08 0.22 0.22 92 1012.4
20260903014016 75 105 0.0 2.0 0.09 0.22 0.22 92 1012.3
20260903014014 75 95 0.0 3.0 0.09 0.22 0.22 92 1011.5
20260903013506 76 130 0.0 2.0 0.19 0.22 0.22 92 1012.3
20260903013503 76 101 1.0 3.0 0.19 0.22 0.22 92 1011.5
20260903013013 76 130 0.0 2.0 0.22 0.22 0.22 92 1012.4
20260903012504 76 72 1.0 2.0 0.22 0.22 0.22 92 1011.9
20260903012010 76 126 0.0 2.0 0.22 0.22 0.22 91 1012.9
20260903011519 76 37 0.0 0.0 0.21 0.21 0.21 92 1012.1
20260903011514 76 76 0.0 2.0 0.21 0.21 0.21 92 1013.0
20260903011008 76 37 0.0 2.0 0.21 0.21 0.21 91 1012.2
20260903010510 76 76 0.0 2.0 0.21 0.21 0.21 90 1013.0
20260903010018 76 281 0.0 2.0 0.20 0.20 0.20 90 1012.4
20260903010012 76 23 0.0 2.0 0.20 0.20 0.20 90 1013.1
20260903005510 76 340 0.0 8.0 0.18 0.18 0.18 89 1012.1
20260903005508 76 67 0.0 3.0 0.18 0.18 0.18 89 1012.8
20260903005017 77 351 0.0 4.0 0.16 0.16 0.16 88 1012.7
20260903005013 77 333 2.0 8.0 0.16 0.16 0.16 88 1011.9
20260903004532 77 36 3.0 8.0 0.14 0.14 0.14 86 1011.8
20260903004528 77 76 2.0 5.0 0.14 0.14 0.14 86 1012.5
20260903004008 78 51 2.0 5.0 0.13 0.13 0.13 81 1012.7
20260903003512 81 331 1.0 6.0 0.03 0.03 0.03 75 1011.9
20260903003032 85 333 0.0 4.0 0.00 0.00 0.00 65 1011.8
20260903003029 85 330 1.0 4.0 0.00 0.00 0.00 65 1012.6
20260903002504 87 46 1.0 8.0 0.00 0.00 0.00 58 1011.8
20260903002005 88 51 1.0 8.0 0.00 0.00 0.00 55 1012.3
20260903001514 89 66 2.0 12.0 0.00 0.00 0.00 52 1011.5
20260903001014 89 63 3.0 12.0 0.00 0.00 0.00 53 1011.4
20260903001010 89 133 2.0 12.0 0.00 0.00 0.00 53 1012.3
20260903000506 89 103 2.0 6.0 0.00 0.00 0.00 54 1012.1
20260903000018 88 163 1.0 9.0 0.00 0.00 0.00 55 1012.3
20260902235509 89 24 4.0 11.0 0.00 0.00 0.00 55 1011.7
20260902235005 90 36 2.0 10.0 0.00 0.00 0.00 54 1011.8
20260902235003 90 81 2.0 10.0 0.00 0.00 0.00 54 1012.5
20260902234522 92 180 2.0 11.0 0.00 0.00 0.00 51 1011.6
20260902234519 92 324 2.0 10.0 0.00 0.00 0.00 51 1012.3
20260902234015 94 49 4.0 11.0 0.00 0.00 0.00 47 1011.5
20260902234012 94 339 2.0 9.0 0.00 0.00 0.00 47 1012.3
20260902233515 95 11 1.0 3.0 0.00 0.00 0.00 47 1011.3
20260902233513 95 335 1.0 3.0 0.00 0.00 0.00 47 1012.2
20260902233017 96 342 0.0 4.0 0.00 0.00 0.00 46 1011.1
20260902233015 96 31 1.0 4.0 0.00 0.00 0.00 46 1011.9
20260902232514 97 311 1.0 4.0 0.00 0.00 0.00 44 1011.1
20260902232507 97 5 1.0 4.0 0.00 0.00 0.00 44 1011.8
20260902232014 98 270 1.0 4.0 0.00 0.00 0.00 43 1011.8
20260902231515 98 207 0.0 4.0 0.00 0.00 0.00 44 1011.8
20260902231512 98 232 3.0 7.0 0.00 0.00 0.00 44 1010.9
20260902231006 99 250 4.0 8.0 0.00 0.00 0.00 40 1011.0
20260902230505 99 227 4.0 8.0 0.00 0.00 0.00 41 1011.1
20260902230018 99 225 4.0 9.0 0.00 0.00 0.00 42 1010.9
20260902230016 99 213 1.0 5.0 0.00 0.00 0.00 42 1011.7
20260902225511 99 229 1.0 5.0 0.00 0.00 0.00 40 1011.6
20260902225508 99 247 5.0 9.0 0.00 0.00 0.00 40 1010.9
20260902225012 99 283 5.0 8.0 0.00 0.00 0.00 41 1010.8
20260902225008 99 192 2.0 5.0 0.00 0.00 0.00 41 1011.7
20260902224523 99 214 4.0 7.0 0.00 0.00 0.00 42 1010.9
20260902224013 99 195 2.0 4.0 0.00 0.00 0.00 39 1010.8
20260902224005 99 90 0.0 3.0 0.00 0.00 0.00 39 1011.6
20260902223509 100 262 1.0 3.0 0.00 0.00 0.00 39 1011.7
20260902223028 100 223 3.0 10.0 0.00 0.00 0.00 38 1010.9
20260902223007 100 352 0.0 7.0 0.00 0.00 0.00 38 1011.6
20260902222515 100 145 2.0 10.0 0.00 0.00 0.00 39 1011.0
20260902222507 100 211 2.0 7.0 0.00 0.00 0.00 39 1011.7
20260902222008 100 222 1.0 4.0 0.00 0.00 0.00 38 1010.9
20260902222004 100 360 0.0 4.0 0.00 0.00 0.00 38 1011.7
20260902221526 101 87 1.0 5.0 0.00 0.00 0.00 37 1010.9
20260902221518 101 59 1.0 4.0 0.00 0.00 0.00 37 1011.7
20260902221017 101 317 2.0 8.0 0.00 0.00 0.00 38 1010.9
20260902221004 101 349 1.0 3.0 0.00 0.00 0.00 38 1011.7
20260902220519 101 255 5.0 8.0 0.00 0.00 0.00 38 1011.0
20260902220507 101 247 1.0 5.0 0.00 0.00 0.00 38 1011.8
20260902220019 101 249 1.0 9.0 0.00 0.00 0.00 37 1011.0
20260902220016 101 360 0.0 5.0 0.00 0.00 0.00 37 1011.9
20260902215507 102 130 1.0 4.0 0.00 0.00 0.00 37 1011.9
20260902215009 102 190 4.0 7.0 0.00 0.00 0.00 37 1011.2
20260902215003 102 221 1.0 5.0 0.00 0.00 0.00 37 1011.9
20260902214520 101 57 0.0 5.0 0.00 0.00 0.00 39 1011.9
20260902214517 101 254 2.0 6.0 0.00 0.00 0.00 39 1011.2
20260902214012 100 42 1.0 5.0 0.00 0.00 0.00 39 1012.0
20260902213511 100 14 3.0 7.0 0.00 0.00 0.00 38 1011.3
20260902213504 100 125 3.0 5.0 0.00 0.00 0.00 38 1012.1
20260902213026 101 229 2.0 7.0 0.00 0.00 0.00 37 1011.3
20260902213015 101 229 1.0 4.0 0.00 0.00 0.00 37 1012.1
20260902212513 102 274 3.0 10.0 0.00 0.00 0.00 37 1011.3
20260902212509 102 244 1.0 5.0 0.00 0.00 0.00 37 1012.2
20260902212015 102 221 7.0 10.0 0.00 0.00 0.00 38 1011.4
20260902212005 102 209 2.0 5.0 0.00 0.00 0.00 38 1012.2
20260902211530 101 221 2.0 6.0 0.00 0.00 0.00 39 1011.5
20260902211504 101 246 0.0 4.0 0.00 0.00 0.00 39 1012.2
20260902211008 100 323 1.0 12.0 0.00 0.00 0.00 38 1011.6
20260902211004 100 239 2.0 4.0 0.00 0.00 0.00 38 1012.3
20260902210515 101 270 4.0 12.0 0.00 0.00 0.00 38 1011.7
20260902210504 101 252 1.0 4.0 0.00 0.00 0.00 38 1012.4
20260902210036 102 264 3.0 9.0 0.00 0.00 0.00 37 1011.6
20260902210006 102 250 2.0 4.0 0.00 0.00 0.00 37 1012.4
20260902205516 100 221 2.0 5.0 0.00 0.00 0.00 39 1011.6
20260902205507 100 175 0.0 2.0 0.00 0.00 0.00 39 1012.4
20260902205012 100 141 1.0 7.0 0.00 0.00 0.00 38 1011.8
20260902205007 100 329 0.0 3.0 0.00 0.00 0.00 38 1012.5
20260902204516 100 195 0.0 3.0 0.00 0.00 0.00 39 1012.5
20260902204008 102 211 4.0 8.0 0.00 0.00 0.00 40 1011.9
20260902204005 102 225 1.0 4.0 0.00 0.00 0.00 40 1012.7
20260902203510 103 161 4.0 10.0 0.00 0.00 0.00 38 1012.0
20260902203507 103 214 2.0 4.0 0.00 0.00 0.00 38 1012.8
20260902203025 103 201 1.0 3.0 0.00 0.00 0.00 38 1012.9
20260902202504 102 200 1.0 4.0 0.00 0.00 0.00 39 1013.0
20260902202006 100 82 0.0 8.0 0.00 0.00 0.00 39 1013.1
20260902202002 100 197 0.0 8.0 0.00 0.00 0.00 39 1012.2
20260902201518 101 20 2.0 9.0 0.00 0.00 0.00 37 1013.2
20260902201512 101 254 2.0 11.0 0.00 0.00 0.00 37 1012.4
20260902201004 101 234 8.0 11.0 0.00 0.00 0.00 39 1012.4
20260902201001 101 224 4.0 9.0 0.00 0.00 0.00 39 1013.3
20260902200505 102 254 3.0 7.0 0.00 0.00 0.00 38 1013.3
20260902200014 102 213 5.0 16.0 0.00 0.00 0.00 40 1012.6
20260902200010 102 204 1.0 5.0 0.00 0.00 0.00 40 1013.4
20260902195506 101 222 1.0 4.0 0.00 0.00 0.00 41 1013.5
20260902195502 101 198 7.0 16.0 0.00 0.00 0.00 41 1012.7
20260902195003 101 287 1.0 6.0 0.00 0.00 0.00 39 1013.7
20260902194532 101 201 2.0 6.0 0.00 0.00 0.00 39 1013.7
20260902194523 101 220 3.0 11.0 0.00 0.00 0.00 39 1012.9
20260902194007 102 360 1.0 7.0 0.00 0.00 0.00 39 1013.7
20260902193508 101 164 2.0 5.0 0.00 0.00 0.00 40 1013.8
20260902193503 101 265 7.0 11.0 0.00 0.00 0.00 40 1013.0
20260902193008 100 150 0.0 4.0 0.00 0.00 0.00 42 1013.9
20260902192508 100 128 3.0 11.0 0.00 0.00 0.00 43 1013.3
20260902192011 100 265 1.0 3.0 0.00 0.00 0.00 40 1014.2
20260902192003 100 273 2.0 11.0 0.00 0.00 0.00 39 1013.4
20260902191511 102 178 5.0 10.0 0.00 0.00 0.00 41 1013.4
20260902191505 102 145 1.0 5.0 0.00 0.00 0.00 41 1014.3
20260902191006 101 261 2.0 5.0 0.00 0.00 0.00 42 1014.3
20260902191003 101 196 5.0 10.0 0.00 0.00 0.00 42 1013.5
20260902190507 100 90 1.0 4.0 0.00 0.00 0.00 42 1014.4
20260902190504 100 261 7.0 10.0 0.00 0.00 0.00 42 1013.6
20260902190006 98 238 1.0 4.0 0.00 0.00 0.00 43 1014.5
20260902190004 98 242 2.0 6.0 0.00 0.00 0.00 43 1013.6
20260902185503 99 111 2.0 9.0 0.00 0.00 0.00 44 1013.8
20260902185007 99 289 1.0 9.0 0.00 0.00 0.00 42 1014.6
20260902185005 99 239 2.0 9.0 0.00 0.00 0.00 42 1013.9
20260902184512 101 242 2.0 4.0 0.00 0.00 0.00 42 1014.7
20260902184503 101 197 5.0 9.0 0.00 0.00 0.00 42 1013.9
20260902184004 99 340 1.0 4.0 0.00 0.00 0.00 43 1014.9
20260902183508 99 261 1.0 5.0 0.00 0.00 0.00 44 1014.9
20260902183504 99 165 2.0 10.0 0.00 0.00 0.00 44 1014.0
20260902183019 98 215 3.0 10.0 0.00 0.00 0.00 43 1014.1
20260902183015 98 226 1.0 5.0 0.00 0.00 0.00 43 1014.9
20260902182507 98 274 2.0 5.0 0.00 0.00 0.00 44 1015.0
20260902182502 98 264 4.0 10.0 0.00 0.00 0.00 44 1014.3
20260902182004 98 210 2.0 11.0 0.00 0.00 0.00 44 1014.3
20260902181519 98 207 3.0 11.0 0.00 0.00 0.00 45 1014.5
20260902181516 98 184 1.0 6.0 0.00 0.00 0.00 45 1015.2
20260902181012 99 227 2.0 6.0 0.00 0.00 0.00 46 1015.3
20260902180503 97 217 3.0 8.0 0.00 0.00 0.00 47 1014.7
20260902180013 98 255 2.0 4.0 0.00 0.00 0.00 45 1015.6
20260902180008 98 264 2.0 9.0 0.00 0.00 0.00 45 1014.9
20260902175512 97 12 1.0 6.0 0.00 0.00 0.00 50 1015.6
20260902175503 97 252 4.0 9.0 0.00 0.00 0.00 50 1014.9
20260902175006 97 252 4.0 9.0 0.00 0.00 0.00 47 1015.0
20260902175003 97 257 2.0 6.0 0.00 0.00 0.00 47 1015.7
20260902174511 97 231 1.0 4.0 0.00 0.00 0.00 49 1015.9
20260902174507 97 188 4.0 9.0 0.00 0.00 0.00 49 1015.3
20260902174006 97 246 1.0 7.0 0.00 0.00 0.00 49 1016.0
20260902174004 97 201 4.0 11.0 0.00 0.00 0.00 49 1015.3
20260902173504 96 273 3.0 11.0 0.00 0.00 0.00 48 1015.4
20260902173010 97 195 4.0 8.0 0.00 0.00 0.00 50 1015.4
20260902172509 96 201 4.0 8.0 0.00 0.00 0.00 49 1015.4
20260902172507 96 192 1.0 6.0 0.00 0.00 0.00 49 1016.2
20260902172008 95 123 3.0 8.0 0.00 0.00 0.00 51 1015.6
20260902171518 95 5 1.0 4.0 0.00 0.00 0.00 51 1016.3
20260902171506 95 259 5.0 8.0 0.00 0.00 0.00 51 1015.7
20260902171006 95 244 1.0 4.0 0.00 0.00 0.00 51 1016.4
20260902170509 95 17 1.0 4.0 0.00 0.00 0.00 52 1016.5
20260902170507 95 250 4.0 10.0 0.00 0.00 0.00 52 1015.9
20260902170027 94 210 3.0 10.0 0.00 0.00 0.00 54 1015.9
20260902165504 94 352 2.0 10.0 0.00 0.00 0.00 55 1015.9
20260902165007 93 271 0.0 4.0 0.00 0.00 0.00 55 1016.7
20260902165004 93 186 1.0 9.0 0.00 0.00 0.00 55 1016.0
20260902164524 93 190 2.0 5.0 0.00 0.00 0.00 53 1016.8
20260902164511 93 240 4.0 9.0 0.00 0.00 0.00 53 1016.2
20260902164006 93 215 1.0 5.0 0.00 0.00 0.00 56 1016.7
20260902164004 93 207 5.0 9.0 0.00 0.00 0.00 56 1016.1
20260902163505 92 257 4.0 11.0 0.00 0.00 0.00 57 1016.1
20260902163012 92 290 6.0 11.0 0.00 0.00 0.00 56 1016.1
20260902162504 92 252 4.0 9.0 0.00 0.00 0.00 57 1016.3
20260902162003 92 215 3.0 10.0 0.00 0.00 0.00 58 1016.4
20260902161517 92 301 5.0 10.0 0.00 0.00 0.00 58 1016.4
20260902161512 92 31 0.0 6.0 0.00 0.00 0.00 58 1016.8
20260902161008 91 360 1.0 8.0 0.00 0.00 0.00 60 1016.9
20260902160509 91 278 2.0 8.0 0.00 0.00 0.00 62 1016.9
20260902160504 91 200 5.0 9.0 0.00 0.00 0.00 62 1016.3
20260902160023 90 246 4.0 8.0 0.00 0.00 0.00 64 1016.3
20260902160012 90 219 0.0 3.0 0.00 0.00 0.00 64 1017.0
20260902155509 90 205 2.0 9.0 0.00 0.00 0.00 62 1016.2
20260902155507 90 223 1.0 4.0 0.00 0.00 0.00 62 1017.0
20260902155014 89 206 4.0 9.0 0.00 0.00 0.00 65 1016.1
20260902155011 89 267 2.0 4.0 0.00 0.00 0.00 65 1016.9
20260902154510 89 229 1.0 4.0 0.00 0.00 0.00 65 1016.9
20260902154507 89 198 4.0 11.0 0.00 0.00 0.00 65 1016.0
20260902154007 89 165 2.0 4.0 0.00 0.00 0.00 66 1016.9
20260902154002 89 238 4.0 11.0 0.00 0.00 0.00 66 1016.0
20260902153515 88 219 1.0 4.0 0.00 0.00 0.00 68 1017.1
20260902153505 88 191 4.0 8.0 0.00 0.00 0.00 68 1016.2
20260902153011 89 221 2.0 4.0 0.00 0.00 0.00 67 1016.8
20260902153006 89 214 5.0 8.0 0.00 0.00 0.00 67 1016.3
20260902152506 88 184 5.0 8.0 0.00 0.00 0.00 69 1016.2
20260902152007 87 243 2.0 3.0 0.00 0.00 0.00 69 1016.8
20260902151524 87 215 1.0 4.0 0.00 0.00 0.00 70 1016.8
20260902151516 87 221 5.0 8.0 0.00 0.00 0.00 70 1016.4
20260902151005 87 198 1.0 4.0 0.00 0.00 0.00 72 1016.9
20260902150507 86 227 1.0 4.0 0.00 0.00 0.00 73 1016.8
20260902150023 85 202 2.0 5.0 0.00 0.00 0.00 73 1016.9
20260902145512 85 243 5.0 9.0 0.00 0.00 0.00 75 1016.3
20260902145510 85 254 1.0 5.0 0.00 0.00 0.00 75 1016.8
20260902145008 84 263 1.0 6.0 0.00 0.00 0.00 76 1016.9
20260902145006 84 276 5.0 8.0 0.00 0.00 0.00 76 1016.3
20260902144522 84 254 5.0 9.0 0.00 0.00 0.00 77 1016.3
20260902144518 84 207 2.0 6.0 0.00 0.00 0.00 77 1016.9
20260902144014 84 199 1.0 5.0 0.00 0.00 0.00 76 1016.9
20260902143519 83 137 1.0 7.0 0.00 0.00 0.00 78 1017.0
20260902143503 83 216 5.0 11.0 0.00 0.00 0.00 78 1016.3
20260902143016 83 219 2.0 7.0 0.00 0.00 0.00 79 1017.0
20260902143009 83 221 8.0 11.0 0.00 0.00 0.00 79 1016.3
20260902142514 82 216 2.0 6.0 0.00 0.00 0.00 79 1016.9
20260902142503 82 192 8.0 11.0 0.00 0.00 0.00 79 1016.3
20260902142007 82 229 7.0 10.0 0.00 0.00 0.00 81 1016.3
20260902141512 81 214 2.0 5.0 0.00 0.00 0.00 81 1017.0
20260902141009 81 214 3.0 4.0 0.00 0.00 0.00 81 1017.1
20260902140509 80 211 6.0 10.0 0.00 0.00 0.00 82 1016.3
20260902140019 80 194 2.0 4.0 0.00 0.00 0.00 83 1017.2
20260902140007 80 227 5.0 9.0 0.00 0.00 0.00 83 1016.3
20260902135509 80 254 5.0 9.0 0.00 0.00 0.00 83 1016.2
20260902135507 80 186 1.0 4.0 0.00 0.00 0.00 83 1017.1
20260902135011 79 229 4.0 9.0 0.00 0.00 0.00 83 1016.2
20260902134534 79 209 2.0 4.0 0.00 0.00 0.00 84 1017.1
20260902134527 79 215 6.0 9.0 0.00 0.00 0.00 84 1016.1
20260902134007 79 260 5.0 9.0 0.00 0.00 0.00 84 1016.1
20260902133510 78 214 4.0 8.0 0.00 0.00 0.00 84 1016.1
20260902133028 78 261 3.0 8.0 0.00 0.00 0.00 85 1016.0
20260902132520 77 188 1.0 2.0 0.00 0.00 0.00 86 1016.9
20260902132505 77 229 4.0 8.0 0.00 0.00 0.00 86 1016.0
20260902132007 77 207 1.0 2.0 0.00 0.00 0.00 86 1016.9
20260902132003 77 210 2.0 5.0 0.00 0.00 0.00 86 1015.9
20260902131511 76 202 3.0 5.0 0.00 0.00 0.00 87 1015.8
20260902131509 76 219 1.0 2.0 0.00 0.00 0.00 87 1016.7
20260902131004 76 215 1.0 2.0 0.00 0.00 0.00 87 1016.7
20260902130508 76 209 3.0 5.0 0.00 0.00 0.00 88 1015.7
20260902130016 75 211 3.0 5.0 0.00 0.00 0.00 88 1015.6
20260902125511 75 196 2.0 4.0 0.00 0.00 0.00 88 1015.6
20260902125509 75 210 1.0 2.0 0.00 0.00 0.00 88 1016.5
20260902125011 75 229 1.0 2.0 0.00 0.00 0.00 88 1016.4
20260902125004 75 217 3.0 4.0 0.00 0.00 0.00 88 1015.5
20260902124519 75 208 2.0 4.0 0.00 0.00 0.00 88 1015.4
20260902124517 75 213 1.0 2.0 0.00 0.00 0.00 88 1016.3
20260902124013 74 190 2.0 4.0 0.00 0.00 0.00 89 1015.4
20260902123514 74 242 0.0 2.0 0.00 0.00 0.00 89 1016.2
20260902123512 74 208 2.0 4.0 0.00 0.00 0.00 89 1015.3
20260902123019 74 225 1.0 2.0 0.00 0.00 0.00 89 1016.1
20260902122513 74 221 1.0 2.0 0.00 0.00 0.00 88 1016.1
20260902122015 74 201 0.0 2.0 0.00 0.00 0.00 88 1015.3
20260902122013 74 231 1.0 2.0 0.00 0.00 0.00 88 1016.0
20260902121531 74 231 0.0 2.0 0.00 0.00 0.00 88 1016.0
20260902121512 74 213 0.0 2.0 0.00 0.00 0.00 88 1015.3
20260902121008 74 231 0.0 2.0 0.00 0.00 0.00 88 1015.9
20260902121006 74 200 0.0 2.0 0.00 0.00 0.00 88 1015.2
20260902120508 74 231 0.0 2.0 0.00 0.00 0.00 88 1015.9
20260902120505 74 200 0.0 2.0 0.00 0.00 0.00 88 1015.2
20260902120030 74 200 0.0 2.0 0.00 0.00 0.00 88 1015.2
20260902120014 74 231 0.0 2.0 0.00 0.00 0.00 88 1016.0
20260902115507 74 231 0.0 2.0 0.00 0.00 0.00 88 1016.0
20260902115010 74 231 0.0 0.0 0.00 0.00 0.00 88 1016.1
20260902114530 74 200 0.0 0.0 0.00 0.00 0.00 88 1015.4
20260902114525 74 231 0.0 0.0 0.00 0.00 0.00 88 1016.0
20260902114011 74 231 0.0 0.0 0.00 0.00 0.00 88 1016.0
20260902113510 74 200 0.0 0.0 0.00 0.00 0.00 88 1015.3
20260902113507 74 231 0.0 0.0 0.00 0.00 0.00 88 1016.0
20260902113028 74 232 0.0 0.0 0.00 0.00 0.00 88 1015.3
20260902112514 74 232 0.0 0.0 0.00 0.00 0.00 88 1015.3
20260902112512 74 231 0.0 0.0 0.00 0.00 0.00 88 1016.0
20260902112007 74 231 0.0 0.0 0.00 0.00 0.00 87 1016.0
20260902111526 74 231 0.0 0.0 0.00 0.00 0.00 87 1016.0
20260902111524 74 232 0.0 0.0 0.00 0.00 0.00 87 1015.3
20260902111016 75 231 0.0 0.0 0.00 0.00 0.00 86 1016.0
20260902110518 75 232 0.0 0.0 0.00 0.00 0.00 86 1015.3
20260902110028 75 231 0.0 2.0 0.00 0.00 0.00 85 1016.0
20260902110020 75 232 0.0 2.0 0.00 0.00 0.00 85 1015.4
20260902105507 75 231 0.0 2.0 0.00 0.00 0.00 85 1016.0
20260902105505 75 232 0.0 2.0 0.00 0.00 0.00 85 1015.4
20260902105008 76 232 0.0 2.0 0.00 0.00 0.00 85 1015.3
20260902104539 76 231 0.0 2.0 0.00 0.00 0.00 85 1016.0
20260902104517 76 232 1.0 3.0 0.00 0.00 0.00 85 1015.3
20260902104011 76 232 1.0 2.0 0.00 0.00 0.00 85 1016.0
20260902103510 76 209 2.0 4.0 0.00 0.00 0.00 85 1015.2
20260902103504 76 226 1.0 2.0 0.00 0.00 0.00 85 1015.9
20260902103026 76 228 2.0 3.0 0.00 0.00 0.00 85 1015.2
20260902103014 76 227 1.0 2.0 0.00 0.00 0.00 85 1015.9
20260902102511 76 199 1.0 4.0 0.00 0.00 0.00 85 1015.1
20260902102013 76 229 1.0 3.0 0.00 0.00 0.00 85 1015.8
20260902101530 76 217 2.0 5.0 0.00 0.00 0.00 85 1015.1
20260902101509 76 223 1.0 3.0 0.00 0.00 0.00 85 1015.8
20260902101008 75 209 3.0 3.0 0.00 0.00 0.00 85 1015.0
20260902101005 75 230 1.0 2.0 0.00 0.00 0.00 85 1015.7
20260902100512 75 217 2.0 3.0 0.00 0.00 0.00 85 1015.0
20260902100505 75 219 1.0 2.0 0.00 0.00 0.00 85 1015.7
20260902100031 75 222 2.0 3.0 0.00 0.00 0.00 85 1015.0
20260902100010 75 224 1.0 2.0 0.00 0.00 0.00 85 1015.7
20260902095518 75 223 2.0 3.0 0.00 0.00 0.00 85 1014.9
20260902095508 75 219 1.0 2.0 0.00 0.00 0.00 85 1015.6
20260902095011 75 218 2.0 3.0 0.00 0.00 0.00 85 1014.9
20260902095007 75 224 1.0 2.0 0.00 0.00 0.00 85 1015.6
20260902094516 75 205 1.0 3.0 0.00 0.00 0.00 85 1015.0
20260902094009 75 205 2.0 3.0 0.00 0.00 0.00 86 1015.1
20260902094004 75 227 1.0 2.0 0.00 0.00 0.00 86 1015.7
20260902093509 75 189 1.0 2.0 0.00 0.00 0.00 85 1015.1
20260902093028 74 138 0.0 0.0 0.00 0.00 0.00 86 1015.9
20260902093026 74 146 0.0 2.0 0.00 0.00 0.00 86 1015.2
20260902092511 74 138 0.0 0.0 0.00 0.00 0.00 85 1015.9
20260902092014 74 146 0.0 0.0 0.00 0.00 0.00 85 1015.2
20260902092010 74 138 0.0 0.0 0.00 0.00 0.00 85 1015.9
20260902091523 75 146 0.0 0.0 0.00 0.00 0.00 85 1015.2
20260902091014 75 146 0.0 0.0 0.00 0.00 0.00 85 1015.2
20260902091012 75 138 0.0 0.0 0.00 0.00 0.00 85 1015.9
20260902090514 74 76 0.0 0.0 0.00 0.00 0.00 85 1015.2
20260902090505 74 138 0.0 0.0 0.00 0.00 0.00 85 1015.9
20260902090020 75 76 0.0 0.0 0.00 0.00 0.00 85 1015.2
20260902090008 75 138 0.0 0.0 0.00 0.00 0.00 85 1015.9
20260902085512 75 76 0.0 0.0 0.00 0.00 0.00 84 1015.2
20260902085506 75 138 0.0 0.0 0.00 0.00 0.00 84 1015.9
20260902085016 74 76 0.0 0.0 0.00 0.00 0.00 85 1015.2
20260902085004 74 138 0.0 0.0 0.00 0.00 0.00 85 1015.8
20260902084534 74 76 0.0 0.0 0.00 0.00 0.00 85 1015.2
20260902084514 74 138 0.0 0.0 0.00 0.00 0.00 85 1015.9
20260902084011 75 138 0.0 0.0 0.00 0.00 0.00 84 1015.9
20260902084009 75 76 0.0 0.0 0.00 0.00 0.00 84 1015.3
20260902083507 75 76 0.0 0.0 0.00 0.00 0.00 84 1015.2
20260902083025 75 76 0.0 0.0 0.00 0.00 0.00 83 1015.2
20260902083009 75 138 0.0 0.0 0.00 0.00 0.00 83 1015.9
20260902082510 75 76 0.0 0.0 0.00 0.00 0.00 84 1015.2
20260902082508 75 138 0.0 0.0 0.00 0.00 0.00 84 1015.9
20260902082011 75 138 0.0 0.0 0.00 0.00 0.00 83 1015.8
20260902082002 75 76 0.0 0.0 0.00 0.00 0.00 83 1015.2
20260902081527 75 138 0.0 0.0 0.00 0.00 0.00 83 1015.9
20260902081506 75 76 0.0 0.0 0.00 0.00 0.00 83 1015.3
20260902081006 75 138 0.0 0.0 0.00 0.00 0.00 83 1016.0
20260902081003 75 76 0.0 0.0 0.00 0.00 0.00 83 1015.3
20260902080510 76 138 0.0 0.0 0.00 0.00 0.00 82 1016.0
20260902080503 76 76 0.0 0.0 0.00 0.00 0.00 82 1015.3
20260902080030 76 138 0.0 0.0 0.00 0.00 0.00 82 1016.0
20260902080004 76 76 0.0 0.0 0.00 0.00 0.00 82 1015.3
20260902075506 75 138 0.0 0.0 0.00 0.00 0.00 83 1016.0
20260902075504 75 76 0.0 0.0 0.00 0.00 0.00 83 1015.3
20260902075005 75 76 0.0 0.0 0.00 0.00 0.00 82 1015.4
20260902074515 76 138 0.0 0.0 0.00 0.00 0.00 82 1016.2
20260902074506 76 76 0.0 0.0 0.00 0.00 0.00 82 1015.5
20260902074006 76 138 0.0 0.0 0.00 0.00 0.00 82 1016.2
20260902074004 76 76 0.0 0.0 0.00 0.00 0.00 82 1015.5